Kimball, NE

7:32 PM MST on February 25, 2017 (GMT -0700)
Kimball Municipal-Arraj

Weather History for KIBM - October, 2012

Change the Weather History Date:

Thursday, October 11, 2012

  Actual Average (KSNY) Record (KSNY)
Temperature  
Mean Temperature 47 °F -  
Max Temperature 59 °F 64 °F 92 °F (2015)
Min Temperature 35 °F 32 °F 13 °F (1948)
Degree Days  
Heating Degree Days 18    
Moisture  
Dew Point 33 °F    
Average Humidity 65    
Maximum Humidity 83    
Minimum Humidity 38    
Precipitation  
Precipitation 0.00 in - - ()
Sea Level Pressure  
Sea Level Pressure 30.12 in    
Wind  
Wind Speed 9 mph (NE)    
Max Wind Speed 18 mph    
Max Gust Speed 24 mph    
Visibility 10 miles    
Events Rain    
Averages and records for this station are not official NWS values.
T = Trace of Precipitation, MM = Missing Value Source: NWS Daily Summary

Daily Weather History Graph

Daily Weather History Graph

Search for Another Location

Airport or City:

Trip Planner

Search our weather history database for the weather conditions in past years. The results will help you decide how hot, cold, wet, or windy it might be!

Date:

Astronomy

Oct. 11, 2012 Rise Set
Actual Time 8:02 AM CDT 7:19 PM CDT
Civil Twilight 7:34 AM CDT 7:46 PM CDT
Nautical Twilight 7:02 AM CDT 8:18 PM CDT
Astronomical Twilight 6:30 AM CDT 8:50 PM CDT
Moon 3:41 AM CDT (10/11) 4:59 PM CDT (10/11)
Length of Visible Light 12h 12m
Length of Day
11h 16m
Waning Crescent, 18% of the Moon is Illuminated
Oct 11
Waning Crescent
Oct 15
New
Oct 21
First Quarter
Oct 29
Full
Nov 6
Last Quarter

Hourly Weather History & Observations

Time (CDT) Temp. Windchill Dew Point Humidity Pressure Visibility Wind Dir Wind Speed Gust Speed Precip Events Conditions
12:15 AM 39.4 °F 37.2 °F 33.1 °F 78% 29.97 in 10.0 mi WNW 3.5 mph - N/A   Clear
12:35 AM 40.5 °F 38.4 °F 33.6 °F 77% 29.96 in 10.0 mi West 3.5 mph - N/A   Clear
12:55 AM 41.2 °F 38.2 °F 33.8 °F 75% 29.96 in 10.0 mi WNW 4.6 mph - N/A   Clear
1:15 AM 41.9 °F 38.2 °F 34.7 °F 76% 29.96 in 10.0 mi West 5.8 mph - N/A   Clear
1:55 AM 41.2 °F 36.0 °F 34.7 °F 78% 29.95 in 7.0 mi West 8.1 mph - N/A   Clear
2:15 AM 41.9 °F 35.9 °F 34.5 °F 75% 29.95 in 7.0 mi West 10.4 mph - N/A   Clear
2:35 AM 41.9 °F 36.3 °F 34.3 °F 75% 29.95 in 10.0 mi WNW 9.2 mph - N/A   Clear
2:55 AM 42.8 °F 38.0 °F 34.7 °F 73% 29.95 in 10.0 mi WNW 8.1 mph - N/A   Clear
3:15 AM 42.6 °F 37.2 °F 34.7 °F 74% 29.95 in 10.0 mi West 9.2 mph - N/A   Clear
3:35 AM 42.6 °F 36.8 °F 34.9 °F 74% 29.95 in 10.0 mi West 10.4 mph - N/A   Clear
3:55 AM 46.6 °F - 35.8 °F 66% 29.95 in 10.0 mi West 9.2 mph - N/A   Scattered Clouds
4:15 AM 46.8 °F - 36.0 °F 66% 29.95 in 10.0 mi West 10.4 mph - N/A   Scattered Clouds
4:55 AM 48.2 °F - 36.9 °F 65% 29.95 in 7.0 mi WNW 10.4 mph - N/A   Scattered Clouds
5:15 AM 49.5 °F - 36.7 °F 61% 29.97 in 10.0 mi WNW 9.2 mph - N/A   Overcast
5:35 AM 50.7 °F - 36.5 °F 58% 29.98 in 10.0 mi WNW 11.5 mph 16.1 mph N/A   Overcast
5:55 AM 59.4 °F - 33.8 °F 38% 29.97 in 10.0 mi NW 8.1 mph - N/A   Overcast
6:15 AM 54.5 °F - 34.7 °F 47% 30.00 in 10.0 mi NNW 11.5 mph - N/A   Overcast
6:35 AM 52.7 °F - 34.7 °F 50% 30.01 in 10.0 mi North 13.8 mph - N/A   Overcast
6:55 AM 50.0 °F - 33.1 °F 52% 30.01 in 10.0 mi North 18.4 mph - N/A   Scattered Clouds
7:15 AM 46.2 °F 40.8 °F 34.7 °F 64% 30.04 in 10.0 mi North 11.5 mph - N/A   Mostly Cloudy
7:35 AM 45.0 °F 39.3 °F 34.3 °F 66% 30.06 in 10.0 mi North 11.5 mph - N/A   Overcast
7:55 AM 44.4 °F 39.0 °F 33.6 °F 66% 30.08 in 10.0 mi North 10.4 mph - N/A   Overcast
8:15 AM 43.3 °F 35.8 °F 32.0 °F 64% 30.09 in 10.0 mi North 16.1 mph - N/A   Overcast
8:35 AM 41.2 °F 32.7 °F 32.9 °F 72% 30.08 in 10.0 mi NE 17.3 mph 24.2 mph N/A Rain Light Rain
8:55 AM 40.1 °F 31.0 °F 32.5 °F 74% 30.10 in 10.0 mi NNE 18.4 mph - N/A   Mostly Cloudy
9:15 AM 41.9 °F 34.3 °F 32.9 °F 70% 30.11 in 10.0 mi NNE 15.0 mph - N/A   Scattered Clouds
9:35 AM 42.8 °F 35.4 °F 32.9 °F 68% 30.13 in 10.0 mi NNE 15.0 mph - N/A   Scattered Clouds
9:55 AM 42.4 °F 36.1 °F 32.5 °F 68% 30.15 in 10.0 mi North 11.5 mph 20.7 mph N/A   Mostly Cloudy
10:15 AM 44.6 °F 38.4 °F 33.6 °F 65% 30.15 in 10.0 mi North 12.7 mph - N/A   Overcast
10:35 AM 45.5 °F 38.9 °F 33.4 °F 63% 30.15 in 10.0 mi NNE 15.0 mph - N/A   Overcast
10:55 AM 45.7 °F 40.2 °F 33.8 °F 63% 30.17 in 10.0 mi NNE 11.5 mph 18.4 mph N/A   Overcast
11:15 AM 43.9 °F 36.8 °F 33.6 °F 67% 30.17 in 10.0 mi NNE 15.0 mph 19.6 mph N/A   Overcast
11:35 AM 45.0 °F 39.3 °F 33.8 °F 65% 30.18 in 10.0 mi NE 11.5 mph - N/A   Scattered Clouds
11:55 AM 46.8 °F - 33.8 °F 61% 30.17 in 10.0 mi NE 12.7 mph - N/A   Scattered Clouds
12:15 PM 46.9 °F - 33.8 °F 60% 30.19 in 10.0 mi NNE 11.5 mph 16.1 mph N/A   Mostly Cloudy
12:55 PM 46.6 °F - 34.0 °F 62% 30.19 in 10.0 mi NNE 12.7 mph 16.1 mph N/A   Scattered Clouds
1:15 PM 48.0 °F - 34.0 °F 58% 30.19 in 10.0 mi NE 12.7 mph 18.4 mph N/A   Scattered Clouds
1:35 PM 47.3 °F - 33.8 °F 59% 30.19 in 10.0 mi ENE 13.8 mph 19.6 mph N/A   Scattered Clouds
1:55 PM 48.4 °F - 34.0 °F 58% 30.18 in 10.0 mi NE 11.5 mph - N/A   Scattered Clouds
2:15 PM 48.9 °F - 34.0 °F 56% 30.17 in 10.0 mi ENE 12.7 mph 18.4 mph N/A   Scattered Clouds
2:35 PM 48.4 °F - 33.8 °F 57% 30.17 in 10.0 mi NE 15.0 mph - N/A   Clear
2:55 PM 48.6 °F - 34.0 °F 57% 30.17 in 10.0 mi ENE 13.8 mph 17.3 mph N/A   Clear
3:15 PM 51.3 °F - 33.8 °F 51% 30.17 in 10.0 mi NE 13.8 mph - N/A   Scattered Clouds
3:55 PM 52.0 °F - 33.1 °F 49% 30.19 in 10.0 mi ENE 11.5 mph 17.3 mph N/A   Clear
4:15 PM 52.3 °F - 32.7 °F 47% 30.19 in 10.0 mi East 13.8 mph 19.6 mph N/A   Scattered Clouds
4:35 PM 51.1 °F - 32.7 °F 50% 30.19 in 10.0 mi ENE 10.4 mph - N/A   Scattered Clouds
5:15 PM 50.7 °F - 32.7 °F 50% 30.19 in 10.0 mi ENE 6.9 mph 10.4 mph N/A   Clear
5:35 PM 50.0 °F - 32.2 °F 50% 30.19 in 10.0 mi East 10.4 mph - N/A   Clear
5:55 PM 50.0 °F - 32.4 °F 51% 30.19 in 10.0 mi East 12.7 mph - N/A   Clear
6:15 PM 49.1 °F - 32.0 °F 52% 30.20 in 10.0 mi ENE 10.4 mph - N/A   Clear
6:35 PM 47.5 °F - 32.0 °F 55% 30.19 in 10.0 mi East 11.5 mph - N/A   Clear
6:55 PM 45.9 °F 41.2 °F 32.0 °F 58% 30.21 in 10.0 mi East 9.2 mph - N/A   Clear
7:15 PM 44.1 °F 40.1 °F 32.0 °F 63% 30.22 in 10.0 mi East 6.9 mph - N/A   Clear
7:35 PM 41.4 °F 38.4 °F 31.5 °F 68% 30.23 in 10.0 mi ESE 4.6 mph - N/A   Clear
8:15 PM 38.5 °F 34.1 °F 31.3 °F 75% 30.24 in 10.0 mi SE 5.8 mph - N/A   Clear
8:35 PM 38.5 °F 35.0 °F 31.1 °F 75% 30.24 in 10.0 mi ESE 4.6 mph - N/A   Clear
8:55 PM 37.4 °F 31.4 °F 31.6 °F 80% 30.24 in 10.0 mi ESE 8.1 mph - N/A   Clear
9:15 PM 37.8 °F 33.3 °F 31.5 °F 78% 30.25 in 10.0 mi ESE 5.8 mph - N/A   Clear
9:35 PM 37.0 °F 31.6 °F 31.1 °F 79% 30.24 in 10.0 mi ESE 6.9 mph - N/A   Clear
9:55 PM 35.8 °F 30.1 °F 30.9 °F 82% 30.24 in 10.0 mi ESE 6.9 mph - N/A   Clear
10:15 PM 35.6 °F 31.7 °F 30.9 °F 83% 30.25 in 10.0 mi SE 4.6 mph - N/A   Clear
10:55 PM 35.6 °F 29.9 °F 30.6 °F 82% 30.25 in 10.0 mi SSE 6.9 mph - N/A   Clear
11:15 PM 36.3 °F 29.5 °F 30.2 °F 78% 30.25 in 10.0 mi SSE 9.2 mph - N/A   Clear
11:35 PM 36.1 °F 29.9 °F 30.0 °F 78% 30.25 in 10.0 mi SSE 8.1 mph - N/A   Clear
11:55 PM 35.6 °F 28.6 °F 29.8 °F 80% 30.25 in 10.0 mi SSE 9.2 mph - N/A   Clear